Lid_Strength_Index
1 1 1 1 0 1 6 8 11 5 4 9 9 12 10 9 9 8 9 10 10 12 12 12 13 13 11 8 8 12 11 14 16 16 13 13 14 14 14 16 17 18 19 16
1 1 1 2 1 2 8 10 8 4 5 12 12 10 10 9 10 10 10 10 9 10 11 13 12 12 9 8 9 10 10 14 17 17 14 14 14 13 14 14 15 17 18 16
1 1 1 2 1 3 6 10 11 9 8 10 10 11 11 12 8 9 8 9 9 10 11 10 13 12 9 8 9 8 9 14 15 16 15 13 14 13 13 14 16 16 16 16
0 1 2 2 1 1 6 11 12 11 13 12 11 11 11 12 12 9 9 10 10 11 13 12 13 11 10 9 9 11 12 15 15 14 13 13 13 13 13 15 15 16 16 15
0 1 2 2 2 2 7 11 12 11 12 12 12 12 13 13 13 10 11 11 10 10 11 11 12 11 11 11 11 12 12 15 15 17 15 15 16 14 13 13 14 15 14 15
1 1 2 2 2 3 8 9 10 11 12 13 14 13 12 12 12 12 10 11 12 12 12 12 11 11 11 11 12 13 13 15 16 18 16 15 17 15 15 16 16 15 17 14
1 1 2 2 2 4 7 8 9 12 14 13 13 12 12 12 12 13 13 12 12 12 11 11 10 11 11 11 12 12 15 16 16 18 17 20 15 13 13 14 14 13 12 11
1 1 2 2 2 2 7 7 9 12 14 14 13 13 14 13 14 14 14 13 13 12 13 13 14 14 14 13 12 13 13 15 17 17 18 17 15 13 14 13 14 12 12 12
1 1 1 2 2 2 6 7 7 10 13 14 12 13 14 14 15 14 14 13 12 12 13 14 17 17 16 16 15 13 13 14 15 18 19 19 15 12 11 12 16 12 11 11
1 1 1 2 2 2 4 6 6 8 12 11 13 14 13 12 13 14 14 13 13 12 13 15 17 16 14 16 16 16 15 15 16 16 17 15 12 11 11 16 16 11 11 12
1 1 1 2 2 3 4 6 6 7 10 10 9 10 12 13 12 12 12 11 12 13 13 13 14 15 15 16 16 16 17 18 18 17 18 18 12 12 13 12 11 11 12 12
2 1 1 2 2 3 4 7 6 6 7 9 7 7 8 10 10 12 12 11 12 11 13 14 15 16 17 16 17 15 16 14 16 15 15 12 11 11 11 11 11 12 12 11
2 2 1 2 2 3 4 7 7 7 9 8 8 9 6 6 7 8 11 11 11 11 11 14 14 15 16 17 16 17 15 14 14 13 13 12 12 11 11 11 11 11 11 11
2 2 2 2 1 2 3 6 6 7 8 10 9 6 7 6 6 7 8 9 8 8 10 13 13 13 13 15 14 15 14 13 14 14 14 13 13 12 11 11 12 12 12 12
2 2 2 2 2 2 3 4 5 5 8 10 10 8 7 6 6 7 7 8 9 10 11 12 12 10 11 13 14 14 14 14 15 15 12 13 13 11 11 12 12 12 13 13
3 2 2 2 1 2 5 8 5 4 5 8 12 8 9 7 7 7 8 8 8 10 10 11 11 10 12 15 16 14 13 12 12 12 12 12 12 12 13 12 13 13 13 13
3 3 2 2 2 4 6 9 7 5 4 9 12 12 9 9 8 8 8 8 9 9 11 12 11 11 12 15 16 13 13 12 12 13 12 13 12 13 14 13 12 12 12 12
3 2 2 3 3 4 6 5 4 4 7 9 14 13 12 9 10 11 8 9 9 9 11 11 11 11 13 16 14 14 13 12 12 12 12 12 13 14 14 14 13 14 14 13
3 3 3 4 6 7 6 4 4 5 7 12 12 14 15 9 11 11 11 10 13 10 12 12 12 14 15 14 13 13 12 13 12 15 15 14 15 14 16 16 17 14 14 14
3 5 8 10 8 5 5 7 8 10 9 10 13 11 13 10 11 12 12 12 14 15 13 12 13 14 12 13 12 12 12 12 14 15 16 18 19 20 17 16 15 14 13 15
6 9 11 8 6 8 10 12 12 12 14 11 12 12 12 10 13 13 12 14 14 17 15 14 16 19 16 14 14 14 15 13 13 14 16 16 16 15 16 15 15 15 15 15
7 8 7 8 11 13 16 14 14 14 15 13 12 12 11 11 11 13 13 15 15 18 14 15 18 17 15 14 15 15 14 14 14 14 14 15 15 15 15 15 15 15 15 18
7 10 12 12 13 16 18 20 17 17 14 13 12 13 12 12 12 14 14 16 17 15 17 18 20 18 17 17 16 16 16 15 15 15 15 16 16 15 15 15 15 16 18 18
12 13 15 14 16 18 18 19 18 16 13 12 11 13 13 12 14 14 16 16 16 21 24 23 21 19 16 16 16 16 16 16 16 16 16 16 17 17 16 16 16 18 19 19
13 13 15 16 18 19 22 16 14 14 11 12 14 15 14 16 15 15 16 18 19 21 22 21 20 19 18 16 16 16 16 17 17 17 16 16 17 18 19 18 19 19 19 19
14 14 18 16 18 17 17 17 14 13 12 14 15 17 18 17 16 17 18 20 22 21 20 19 21 17 17 16 16 16 16 17 17 17 16 16 16 17 18 18 19 19 19 19
14 15 15 19 20 17 15 14 13 12 12 18 17 21 20 17 19 21 19 19 19 19 20 20 18 17 16 16 15 14 15 16 16 17 16 16 16 17 19 19 19 19 18 18